Location: Gloden
(48.4833°N, 15.3167°E)
Time: 02:43:25
(UTC+00:00)

CUTE-I - Visible Passes

Search period start: 27 November 2022 00:00
Search period end: 07 December 2022 00:00
Orbit: 810 x 824 km, 98.7° (Epoch: 26 November)

Date Brightness Start Highest point End Pass type
(mag) Time Alt. Az. Time Alt. Az. Time Alt. Az.
27 Nov ? 05:06:08 10° NNE 05:11:25 54° E 05:16:40 10° S visible
27 Nov ? 16:31:38 10° S 16:36:55 68° WSW 16:42:15 10° NNW visible
28 Nov ? 04:44:35 10° NNE 04:49:33 36° E 04:54:28 10° SSE visible
28 Nov ? 16:09:51 10° SSE 16:15:09 82° ENE 16:20:31 10° NNW visible
28 Nov ? 17:52:41 10° SW 17:55:51 16° W 17:59:02 10° NW visible
29 Nov ? 04:23:15 10° NE 04:27:35 24° E 04:31:56 10° SSE visible
29 Nov ? 15:48:18 10° SE 15:53:28 56° ENE 15:58:41 10° N visible
29 Nov ? 17:29:36 10° SW 17:33:49 24° W 17:38:05 10° NW visible
30 Nov ? 04:02:16 10° NE 04:05:35 16° E 04:08:53 10° SE visible
30 Nov ? 05:40:51 10° NNE 05:46:15 81° WNW 05:51:37 10° SSW visible
30 Nov ? 17:07:02 10° SSW 17:11:52 35° W 17:16:45 10° NNW visible
01 Dec ? 03:42:39 10° ENE 03:43:29 10° E 03:44:18 10° E visible
01 Dec ? 05:19:06 10° NNE 05:24:29 69° ESE 05:29:50 10° S visible
01 Dec ? 16:44:48 10° S 16:49:59 53° W 16:55:14 10° NNW visible
02 Dec ? 04:57:28 10° NNE 05:02:39 46° E 05:07:48 10° S visible
02 Dec ? 16:22:52 10° SSE 16:28:11 79° WSW 16:33:34 10° NNW visible
02 Dec ? 18:07:02 10° WSW 18:09:04 12° W 18:11:08 10° WNW visible
03 Dec ? 04:36:00 10° NNE 04:40:46 31° E 04:45:29 10° SSE visible
03 Dec ? 16:01:09 10° SSE 16:06:26 71° ENE 16:11:47 10° N visible
03 Dec ? 17:43:19 10° SW 17:47:00 19° W 17:50:42 10° NW visible
04 Dec ? 04:14:46 10° NE 04:18:47 21° E 04:22:46 10° SE visible
04 Dec ? 05:53:55 10° N 05:59:15 64° WNW 06:04:33 10° SSW visible
04 Dec ? 15:39:41 10° SE 15:44:46 48° ENE 15:49:54 10° N visible
04 Dec ? 17:20:29 10° SSW 17:24:59 28° W 17:29:34 10° NW visible
05 Dec ? 03:54:02 10° NE 03:56:44 14° E 03:59:25 10° ESE visible
05 Dec ? 05:32:06 10° NNE 05:37:32 87° ESE 05:42:55 10° SSW visible
05 Dec ? 16:58:03 10° SSW 17:03:05 41° W 17:08:09 10° NNW visible
06 Dec ? 05:10:24 10° NNE 05:15:44 59° E 05:21:02 10° S visible
06 Dec ? 16:35:58 10° S 16:41:13 63° WSW 16:46:33 10° NNW visible
